[[{"header":{"parameterUnit":"m.s-1","parameterCategory":2,"la1":30.2991,"la2":30.254,"lo1":-89.0895,"lo2":-89.0444,"dy":0.0017,"dx":0.0017,"nx":28,"ny":28,"refTime":"2025-03-19T09:00:00:Z","depth":"0","parameterNumber":2,"parameterNumberName":"U-component_of_CURRENTS"},"data":[0,0,0,0,0,0,0,0,0,0,0,0,0,0,0,0,0,0,0,0,0,0,0,0,0,0,0,0,0,0,0,0,0,0,0,0,0,0,0,0,0,0,0,0,0,0,0,0,0,0,0,0,0,0,0,0,0,0,0.2863,0.2864,0,0.289,0.289,0.289,0.2784,0.2781,0.2779,0.2777,0.2805,0.2808,0.2811,0,0,0,0,0,0,0,0,0,0,0,0,0,0.2728,0.2731,0.2863,0.2864,0.2865,0.289,0.289,0.289,0.2784,0.2781,0.2778,0.2775,0.2804,0.2807,0.2811,0,0,0,0,0,0,0,0,0,0,0,0,0,0.2767,0.2731,0.2863,0.2821,0.2818,0.289,0.289,0.2889,0.2785,0.2781,0.2778,0.2774,0.2803,0.2807,0.2812,0.2913,0,0,0.2826,0.2827,0,0,0,0,0,0,0,0,0.2765,0.2771,0.2826,0.2824,0.2821,0.2836,0.2853,0.29,0.2786,0.279,0.2777,0.2772,0.2823,0.2826,0.2828,0.2914,0.2916,0.2826,0.2829,0.2831,0.2832,0,0,0,0,0,0,0,0.2762,0.277,0.2866,0.2828,0.2825,0.2804,0.2805,0.2861,0.2821,0.2789,0.2783,0.2799,0.282,0.2824,0.2828,0.2916,0.2826,0.283,0.2833,0.2834,0.3077,0.3081,0,0,0,0,0,0,0.2779,0.2768,0.2865,0.2868,0.2792,0.281,0.2811,0.2829,0.282,0.2817,0.2803,0.2795,0.2818,0.2823,0.2829,0.2937,0.2831,0.2835,0.2837,0.3074,0.3078,0.3082,0,0,0,0,0,0,0.2776,0.2787,0.2865,0.2823,0.2833,0.2817,0.2839,0.2832,0.2831,0.2832,0.2826,0.2809,0.2816,0.2823,0.2888,0.2938,0.2837,0.2841,0.3069,0.3075,0.308,0.3162,0,0,0,0,0,0,0.2772,0.2786,0.2803,0.2825,0.2836,0.2914,0.2843,0.2835,0.2851,0.284,0.2837,0.2835,0.2813,0.2882,0.2892,0.2942,0.2845,0.3064,0.3072,0.3078,0.3155,0.317,0.3183,0,0,0,0,0,0.2767,0.281,0.2804,0.2816,0.286,0.2917,0.292,0.2891,0.2855,0.2872,0.2872,0.2835,0.2933,0.2889,0.2901,0.2953,0.3061,0.307,0.3078,0.3149,0.3167,0.3183,0,0,0,0,0,0,0.2756,0.2805,0.2797,0.2851,0.2885,0.2901,0.2921,0.2911,0.2925,0.2909,0.2891,0.2893,0.2976,0.2967,0.2919,0.3047,0.299,0.3001,0.304,0.3057,0.3071,0.3101,0.2848,0,0,0,0,0,0.277,0.2813,0.2852,0.2897,0.2915,0.2923,0.2941,0.293,0.295,0.2949,0.2956,0.2974,0.3028,0.3039,0.3085,0.3158,0.3179,0.32,0.3214,0.3226,0.3263,0.3352,0.3377,0.311,0.311,0.3109,0,0,0.2781,0.2814,0.2838,0.2898,0.2914,0.2963,0.2922,0.2962,0.3004,0.296,0.3017,0.3041,0.3067,0.3143,0.3177,0.3131,0.331,0.3237,0.3246,0.3277,0.3364,0.339,0.3413,0.3115,0.3114,0.3113,0,0,0.2831,0.2853,0.2903,0.2941,0.2988,0.3,0.302,0.3053,0.3061,0.3131,0.3121,0.318,0.3235,0.3269,0.3292,0.3425,0.34,0.3429,0.3503,0.3589,0.3611,0.3631,0.3666,0.3689,0.3412,0.3412,0.3412,0,0.2838,0.2903,0.2928,0.2986,0.302,0.3023,0.3079,0.3113,0.3163,0.3203,0.3155,0.3289,0.3302,0.342,0.3455,0.3457,0.3483,0.3424,0.3605,0.3626,0.3645,0.3676,0.37,0.3417,0.3417,0.3416,0.3416,0,0.2929,0.2972,0.3009,0.3078,0.3122,0.3173,0.3223,0.327,0.3276,0.3311,0.3427,0.3453,0.3527,0.354,0.3534,0.3687,0.3654,0.3626,0.3554,0.3677,0.3702,0.3725,0.3424,0.3423,0.3421,0.342,0,0,0.2943,0.305,0.3053,0.3098,0.3169,0.3219,0.3304,0.3393,0.3469,0.3506,0.3622,0.3696,0.371,0.3743,0.375,0.3812,0.3953,0.3777,0.3779,0.3797,0.4119,0.3954,0.3962,0.3952,0.3958,0.3962,0.4072,0,0.2992,0.3107,0.3144,0.3243,0.3304,0.3341,0.3425,0.3509,0.3574,0.3696,0.3743,0.3856,0.3787,0.3837,0.3897,0.3963,0.4024,0.3925,0.4013,0.4015,0.3842,0.3988,0.3801,0.3872,0.4094,0.4098,0.4101,0,0.3052,0.3123,0.3229,0.3334,0.3362,0.3421,0.3555,0.3635,0.3797,0.3856,0.3961,0.4016,0.4142,0.4067,0.42,0.4137,0.4156,0.4172,0.4176,0.4017,0.3895,0.3795,0.3906,0.3889,0.4136,0.4133,0.4131,0,0.3059,0.3172,0.3256,0.3296,0.3424,0.3477,0.3537,0.3682,0.3786,0.3982,0.4081,0.4208,0.4288,0.4347,0.435,0.4306,0.4483,0.4416,0.4281,0.4266,0.4126,0.409,0.4222,0.4545,0.4545,0.4545,0.4544,0,0.31,0.317,0.3266,0.3322,0.3434,0.3499,0.3639,0.3734,0.3906,0.4044,0.4164,0.4281,0.4369,0.4456,0.4446,0.4422,0.4549,0.4343,0.4311,0.4143,0.4109,0.4097,0.4073,0.4549,0.4548,0.4547,0.4546,0,0.3134,0.3179,0.3296,0.3414,0.345,0.3536,0.3688,0.3804,0.3941,0.4136,0.4207,0.4387,0.4458,0.4507,0.4606,0.4518,0.4418,0.4492,0.4257,0.4194,0.3987,0.3971,0.3887,0.3796,0.4367,0.4364,0.4361,0,0.3182,0.3248,0.337,0.3425,0.3482,0.3599,0.369,0.3825,0.3941,0.4162,0.4258,0.4404,0.4442,0.4503,0.4418,0.4376,0.4322,0.4186,0.4067,0.3994,0.3958,0.3811,0.3732,0.3915,0.3909,0.3904,0.39,0,0.3306,0.3335,0.3421,0.35,0.3583,0.3676,0.3791,0.3862,0.4008,0.413,0.4232,0.4272,0.4318,0.4176,0.413,0.4077,0.4001,0.4076,0.4105,0.3714,0.3467,0.3354,0.3799,0.3856,0.3861,0.3864,0.3866,0.3868,0.3401,0.3454,0.3513,0.3564,0.364,0.3653,0.3641,0.3749,0.3818,0.3845,0.4026,0.3965,0.3994,0.3862,0.3802,0.3654,0.3649,0.3558,0.3577,0.3459,0.3278,0.3589,0.3532,0.3534,0.3536,0.3538,0.3539,0,0.3463,0.3481,0.3565,0.3552,0.3531,0.3587,0.3629,0.3543,0.3477,0.3581,0.3568,0.3539,0.3422,0.3443,0.3358,0.3228,0.3082,0.3179,0.3009,0.2981,0.3376,0.3265,0.302,0.302,0.302,0.302,0.302,0.302,0.3485,0.351,0.3489,0.3385,0.3362,0.3229,0.3165,0.308,0.3074,0.2955,0.2911,0.2948,0.3195,0.3242,0.3145,0.3047,0.2915,0.2701,0.2787,0.3162,0.3201,0.3238,0.3136,0.2867,0.2867,0.2258,0.2254,0.2251]},{"header":{"parameterUnit":"m.s-1","parameterCategory":2,"la1":30.2991,"la2":30.254,"lo1":-89.0895,"lo2":-89.0444,"dy":0.0017,"dx":0.0017,"nx":28,"ny":28,"refTime":"2025-03-19T09:00:00:Z","depth":"0","parameterNumber":3,"parameterNumberName":"V-component_of_CURRENTS"},"data":[0,0,0,0,0,0,0,0,0,0,0,0,0,0,0,0,0,0,0,0,0,0,0,0,0,0,0,0,0,0,0,0,0,0,0,0,0,0,0,0,0,0,0,0,0,0,0,0,0,0,0,0,0,0,0,0,0,0,0.0033,0.0033,0,0.0049,0.005,0.005,0.0041,0.0041,0.004,0.004,0.0046,0.0047,0.0047,0,0,0,0,0,0,0,0,0,0,0,0,0,0.0001,0.0002,0.0033,0.0033,0.0034,0.0049,0.005,0.005,0.0041,0.0041,0.004,0.0039,0.0046,0.0047,0.0048,0,0,0,0,0,0,0,0,0,0,0,0,0,0.0017,0.0002,0.0033,0.0031,0.003,0.0049,0.005,0.005,0.0041,0.0041,0.004,0.0039,0.0046,0.0047,0.0048,0.0069,0,0,0.0051,0.0051,0,0,0,0,0,0,0,0,0.0016,0.0018,0.0031,0.0031,0.0031,0.0042,0.0041,0.0055,0.0041,0.0038,0.004,0.0039,0.0044,0.0045,0.0051,0.0069,0.0069,0.0051,0.0051,0.0052,0.0052,0,0,0,0,0,0,0,0.0015,0.0017,0.004,0.0031,0.0031,0.0031,0.0032,0.0044,0.0045,0.0038,0.0037,0.0038,0.0044,0.005,0.0051,0.0069,0.0051,0.0052,0.0052,0.0052,0.011,0.0111,0,0,0,0,0,0,0.0012,0.0016,0.004,0.0041,0.002,0.0032,0.0033,0.004,0.0045,0.0045,0.0039,0.0038,0.0049,0.005,0.0051,0.0093,0.0052,0.0053,0.0053,0.0109,0.011,0.0111,0,0,0,0,0,0,0.0011,0.0014,0.0039,0.0028,0.0031,0.0033,0.004,0.004,0.0044,0.0046,0.0046,0.0042,0.0048,0.005,0.0064,0.0093,0.0053,0.0054,0.0108,0.0109,0.011,0.0167,0,0,0,0,0,0,0.0011,0.0014,0.0018,0.0028,0.0031,0.0062,0.0041,0.0041,0.0045,0.0044,0.0049,0.0049,0.0048,0.0063,0.0065,0.0093,0.0055,0.0106,0.0108,0.011,0.0164,0.017,0.0175,0,0,0,0,0,0.001,0.0026,0.0018,0.002,0.0036,0.0063,0.0066,0.0065,0.0046,0.0062,0.0056,0.0048,0.0076,0.0065,0.0067,0.0096,0.0106,0.0108,0.011,0.0161,0.0169,0.0175,0,0,0,0,0,0,0.0014,0.0027,0.0018,0.0037,0.005,0.0062,0.0074,0.0066,0.0074,0.0068,0.006,0.0061,0.0085,0.0081,0.0068,0.0117,0.009,0.0092,0.0128,0.0135,0.0141,0.0169,0.0055,0,0,0,0,0,0.0016,0.0032,0.0042,0.0056,0.0064,0.0065,0.0073,0.0073,0.008,0.0082,0.0085,0.0086,0.0098,0.0106,0.0115,0.0143,0.0134,0.0163,0.0168,0.0173,0.0197,0.0216,0.0226,0.0118,0.0118,0.0118,0,0,0.002,0.003,0.0037,0.0058,0.0066,0.0094,0.0069,0.0088,0.011,0.0083,0.0111,0.0107,0.0108,0.0139,0.015,0.0139,0.0191,0.0176,0.018,0.0202,0.022,0.023,0.024,0.0119,0.0119,0.0119,0,0,0.0051,0.0048,0.0075,0.0092,0.0109,0.0114,0.0119,0.0134,0.0137,0.0161,0.0147,0.0166,0.0175,0.0196,0.0202,0.0247,0.0218,0.0237,0.0296,0.0314,0.0323,0.0331,0.0297,0.0302,0.0244,0.0244,0.0244,0,0.0053,0.009,0.0088,0.0123,0.0142,0.0125,0.0163,0.017,0.0187,0.0204,0.0177,0.0224,0.0212,0.0273,0.0277,0.0265,0.0245,0.0269,0.0323,0.0331,0.0338,0.0301,0.0306,0.0247,0.0247,0.0246,0.0246,0,0.011,0.0137,0.0157,0.0194,0.0215,0.0245,0.0255,0.0272,0.0263,0.0275,0.0323,0.0321,0.0356,0.0347,0.0319,0.0377,0.0332,0.0324,0.0307,0.0353,0.031,0.0314,0.0251,0.025,0.0249,0.0249,0,0,0.0124,0.0184,0.0192,0.0225,0.0255,0.0285,0.0318,0.0359,0.0406,0.0405,0.0482,0.0475,0.0476,0.0484,0.0468,0.0475,0.048,0.0417,0.0416,0.0386,0.0476,0.0409,0.0405,0.0476,0.0477,0.0479,0.0411,0,0.0168,0.0245,0.0264,0.0338,0.0379,0.0385,0.0434,0.0465,0.0486,0.0555,0.0555,0.0617,0.0528,0.0564,0.0552,0.0516,0.0499,0.0497,0.0435,0.0433,0.0371,0.0413,0.0427,0.0366,0.0415,0.0415,0.0416,0,0.0221,0.0267,0.0344,0.0427,0.0448,0.0489,0.0571,0.0614,0.0685,0.0714,0.0761,0.0767,0.079,0.0719,0.066,0.0657,0.0568,0.052,0.0517,0.0447,0.0375,0.0335,0.0371,0.025,0.0421,0.0421,0.042,0,0.024,0.0328,0.039,0.0416,0.0501,0.0542,0.0588,0.0661,0.0748,0.0831,0.0917,0.0916,0.0957,0.0863,0.0723,0.07,0.0647,0.0609,0.0461,0.0453,0.0453,0.0442,0.0377,0.0573,0.0574,0.0574,0.0574,0,0.028,0.0333,0.0407,0.0442,0.0554,0.0585,0.0715,0.0764,0.0894,0.1035,0.1008,0.1119,0.0997,0.0947,0.0787,0.0628,0.0688,0.0485,0.045,0.0466,0.0458,0.0342,0.0246,0.0571,0.0572,0.0572,0.0573,0,0.029,0.0332,0.0424,0.0521,0.0567,0.0644,0.0819,0.094,0.1015,0.1207,0.1254,0.1289,0.1206,0.1044,0.0898,0.0727,0.049,0.0499,0.0493,0.0459,0.0204,0.011,-0.001,-0.0078,0.034,0.0339,0.0337,0,0.0305,0.0344,0.0482,0.0583,0.0635,0.0763,0.0892,0.1,0.1146,0.1314,0.1434,0.1413,0.1422,0.1149,0.0857,0.0573,0.0434,0.0387,0.0356,0.0205,0.0075,0.0019,-0.0032,0.0357,0.0356,0.0355,0.0354,0,0.0344,0.0387,0.0479,0.0678,0.0824,0.0982,0.1154,0.1284,0.1431,0.1574,0.1719,0.1729,0.1473,0.1207,0.0803,0.0598,0.0293,0.0355,0.0235,0.0116,0.0021,-0.0065,0.0341,0.0345,0.0346,0.0347,0.0347,0.0348,0.0397,0.0483,0.063,0.0819,0.0986,0.1181,0.1308,0.1498,0.1701,0.1896,0.1894,0.1921,0.1549,0.1008,0.0706,0.0212,0.02,0.0077,-0.002,-0.0057,-0.0127,0.0225,0.0168,0.0168,0.0168,0.0168,0.0168,0,0.0519,0.0622,0.0787,0.1006,0.1175,0.1243,0.1492,0.162,0.1829,0.1997,0.2083,0.1939,0.1448,0.0968,0.0303,-0.0058,-0.0179,-0.0256,-0.03,-0.0332,0.003,0.0028,-0.0103,-0.0103,-0.0103,-0.0103,-0.0103,-0.0103,0.0603,0.0783,0.0861,0.1137,0.1269,0.1475,0.1596,0.1783,0.1935,0.2122,0.217,0.2182,0.1879,0.063,-0.0145,-0.0339,-0.0561,-0.0658,-0.0771,-0.0499,-0.0474,-0.0449,-0.0468,-0.0702,-0.0703,-0.1046,-0.105,-0.1053]}],[{"header":{"parameterUnit":"m.s-1","parameterCategory":2,"la1":30.2991,"la2":30.254,"lo1":-89.0895,"lo2":-89.0444,"dy":0.0017,"dx":0.0017,"nx":28,"ny":28,"refTime":"2025-03-19T09:00:00:Z","depth":"2","parameterNumber":2,"parameterNumberName":"U-component_of_CURRENTS"},"data":[0,0,0,0,0,0,0,0,0,0,0,0,0,0,0,0,0,0,0,0,0,0,0,0,0,0,0,0,0,0,0,0,0,0,0,0,0,0,0,0,0,0,0,0,0,0,0,0,0,0,0,0,0,0,0,0,0,0,0.252,0.2522,0,0.2564,0.2563,0.2563,0.2486,0.2485,0.2483,0.2482,0.2511,0.2513,0.2515,0,0,0,0,0,0,0,0,0,0,0,0,0,0.2419,0.242,0.252,0.2522,0.2523,0.2564,0.2563,0.2563,0.2487,0.2485,0.2483,0.2481,0.251,0.2513,0.2515,0,0,0,0,0,0,0,0,0,0,0,0,0,0.2452,0.2421,0.252,0.2499,0.2498,0.2564,0.2563,0.2562,0.2487,0.2485,0.2483,0.2481,0.2509,0.2512,0.2516,0.258,0,0,0.2525,0.2527,0,0,0,0,0,0,0,0,0.245,0.2454,0.25,0.2501,0.25,0.2528,0.2539,0.2572,0.2488,0.2479,0.2482,0.2479,0.2525,0.2526,0.2523,0.2581,0.2583,0.2526,0.2528,0.2529,0.253,0,0,0,0,0,0,0,0.2448,0.2452,0.2525,0.2503,0.2503,0.2505,0.2505,0.2544,0.2504,0.2479,0.2477,0.2501,0.2522,0.252,0.2523,0.2583,0.2526,0.2528,0.253,0.2532,0.2698,0.2701,0,0,0,0,0,0,0.2466,0.245,0.2524,0.2528,0.2482,0.2509,0.2509,0.2511,0.2504,0.2504,0.2503,0.2498,0.2515,0.2519,0.2524,0.2627,0.2529,0.2532,0.2534,0.2696,0.2699,0.2702,0,0,0,0,0,0,0.2464,0.2472,0.2523,0.25,0.2508,0.2514,0.2517,0.2514,0.2519,0.2525,0.2521,0.2515,0.2514,0.2519,0.2569,0.2627,0.2533,0.2536,0.2693,0.2697,0.27,0.2817,0,0,0,0,0,0,0.246,0.247,0.2481,0.2501,0.2511,0.2566,0.2521,0.2517,0.2543,0.2536,0.2534,0.2533,0.2512,0.2565,0.2573,0.2629,0.2539,0.269,0.2695,0.2699,0.281,0.2825,0.2837,0,0,0,0,0,0.2456,0.2485,0.248,0.2491,0.2524,0.2569,0.2572,0.2562,0.2547,0.2555,0.2559,0.2534,0.2599,0.257,0.2578,0.2638,0.2688,0.2693,0.2699,0.2804,0.2822,0.2837,0,0,0,0,0,0,0.2447,0.2482,0.2476,0.2513,0.2542,0.256,0.2585,0.2582,0.2592,0.2593,0.2574,0.2575,0.2648,0.2627,0.2595,0.2698,0.2638,0.2645,0.2715,0.2732,0.2745,0.2757,0.2542,0,0,0,0,0,0.2456,0.2486,0.2514,0.2549,0.2566,0.258,0.2601,0.2601,0.2619,0.2619,0.2627,0.2641,0.268,0.269,0.2721,0.2778,0.2789,0.2819,0.2832,0.2843,0.2859,0.2935,0.2958,0.272,0.272,0.272,0,0,0.2469,0.2494,0.2512,0.2552,0.2571,0.261,0.2583,0.2631,0.2665,0.2629,0.2681,0.2705,0.2712,0.2776,0.2805,0.2761,0.2918,0.285,0.286,0.287,0.2944,0.2967,0.2988,0.2724,0.2723,0.2723,0,0,0.2508,0.2527,0.2556,0.259,0.2641,0.2655,0.2676,0.271,0.2719,0.2781,0.2775,0.2829,0.2871,0.2889,0.2903,0.3011,0.3002,0.3022,0.3085,0.316,0.318,0.3198,0.3247,0.3269,0.3009,0.3009,0.3009,0,0.252,0.2554,0.2576,0.2618,0.2648,0.2679,0.2712,0.275,0.2799,0.2841,0.2809,0.2927,0.2926,0.3022,0.3046,0.3045,0.3077,0.3023,0.3178,0.3196,0.3213,0.3259,0.3281,0.3015,0.3014,0.3014,0.3013,0,0.2585,0.2609,0.264,0.269,0.2721,0.2773,0.2819,0.2879,0.2904,0.2947,0.3059,0.3069,0.3136,0.3146,0.3125,0.3251,0.3235,0.3203,0.3139,0.3244,0.3285,0.3307,0.3024,0.3022,0.302,0.3019,0,0,0.2596,0.2667,0.2668,0.2703,0.2761,0.2806,0.2882,0.2967,0.3063,0.3112,0.3223,0.3277,0.3309,0.3327,0.3325,0.3368,0.3502,0.3335,0.3336,0.3386,0.3669,0.3494,0.3499,0.3507,0.3511,0.3515,0.3653,0,0.2627,0.2698,0.2717,0.2795,0.2835,0.289,0.2958,0.3052,0.314,0.3274,0.3323,0.3433,0.3371,0.3424,0.3468,0.3505,0.3564,0.3468,0.3558,0.356,0.3394,0.352,0.3232,0.3317,0.3673,0.3677,0.3679,0,0.2663,0.2706,0.2761,0.2851,0.2873,0.2938,0.3082,0.3148,0.3333,0.3417,0.3541,0.3596,0.3697,0.3625,0.3736,0.3683,0.3698,0.3702,0.3707,0.3517,0.3424,0.3268,0.3341,0.3714,0.3711,0.3708,0.3706,0,0.2659,0.2736,0.2778,0.2813,0.2919,0.2981,0.3049,0.3206,0.3303,0.3533,0.365,0.3773,0.3847,0.3893,0.3875,0.3841,0.398,0.3932,0.3794,0.3782,0.3537,0.3494,0.404,0.404,0.4039,0.4039,0.4039,0,0.2684,0.2734,0.2801,0.2848,0.297,0.2998,0.3161,0.3289,0.3447,0.359,0.3724,0.3839,0.3921,0.3988,0.3967,0.393,0.4057,0.3839,0.3819,0.3566,0.3526,0.3858,0.3835,0.4044,0.4043,0.4042,0.4041,0,0.2708,0.2724,0.281,0.2914,0.2982,0.3066,0.3248,0.3369,0.3503,0.3697,0.3769,0.3935,0.3993,0.4032,0.4105,0.4025,0.402,0.3977,0.3655,0.3592,0.3758,0.374,0.3873,0.3868,0.3864,0.3861,0.3858,0,0.2754,0.2804,0.2896,0.2972,0.3046,0.3184,0.3301,0.3431,0.3519,0.3721,0.3789,0.3922,0.3944,0.3974,0.3895,0.3851,0.3941,0.3563,0.3429,0.3781,0.375,0.3737,0.3725,0.3171,0.3163,0.3156,0.3151,0,0.2888,0.2889,0.2936,0.3048,0.3171,0.331,0.3441,0.347,0.3572,0.3663,0.3695,0.3711,0.3769,0.356,0.3526,0.3457,0.3539,0.342,0.3927,0.3225,0.3121,0.3088,0.31,0.3091,0.3097,0.3101,0.3105,0.3107,0.298,0.3036,0.3038,0.3121,0.3247,0.3291,0.3286,0.3341,0.3332,0.329,0.3447,0.3347,0.3388,0.3126,0.301,0.2935,0.3171,0.3034,0.3055,0.3084,0.2945,0.2836,0.2728,0.2731,0.2734,0.2737,0.274,0,0.3041,0.3076,0.3148,0.3128,0.3132,0.3249,0.3272,0.3139,0.2953,0.3029,0.2972,0.2689,0.2548,0.2585,0.2375,0.2351,0.2337,0.2251,0.223,0.2291,0.2345,0.2169,0.1746,0.1742,0.1739,0.1736,0,0,0.3062,0.3051,0.3007,0.2929,0.296,0.2866,0.28,0.2636,0.2571,0.2355,0.2276,0.2457,0.2523,0.2121,0.2061,0.1871,0.2065,0.1786,0.2591,0.263,0.2681,0.2809,0.2607,0,0,0,0,0]},{"header":{"parameterUnit":"m.s-1","parameterCategory":2,"la1":30.2991,"la2":30.254,"lo1":-89.0895,"lo2":-89.0444,"dy":0.0017,"dx":0.0017,"nx":28,"ny":28,"refTime":"2025-03-19T09:00:00:Z","depth":"2","parameterNumber":3,"parameterNumberName":"V-component_of_CURRENTS"},"data":[0,0,0,0,0,0,0,0,0,0,0,0,0,0,0,0,0,0,0,0,0,0,0,0,0,0,0,0,0,0,0,0,0,0,0,0,0,0,0,0,0,0,0,0,0,0,0,0,0,0,0,0,0,0,0,0,0,0,0.0012,0.0012,0,0.0027,0.0027,0.0027,0.0019,0.0018,0.0018,0.0017,0.0029,0.0029,0.003,0,0,0,0,0,0,0,0,0,0,0,0,0,-0.0019,-0.0018,0.0012,0.0012,0.0012,0.0027,0.0027,0.0027,0.0019,0.0018,0.0018,0.0017,0.0028,0.0029,0.003,0,0,0,0,0,0,0,0,0,0,0,0,0,-0.0004,-0.0018,0.0012,0.0009,0.0009,0.0027,0.0027,0.0027,0.0019,0.0018,0.0017,0.0017,0.0028,0.0029,0.003,0.0052,0,0,0.0034,0.0034,0,0,0,0,0,0,0,0,-0.0005,-0.0003,0.0009,0.0009,0.0009,0.0019,0.002,0.0035,0.0019,0.0016,0.0017,0.0016,0.0025,0.0027,0.0032,0.0053,0.0053,0.0034,0.0035,0.0035,0.0036,0,0,0,0,0,0,0,-0.0006,-0.0004,0.0018,0.0009,0.0009,0.0009,0.001,0.0023,0.0025,0.0016,0.0015,0.0016,0.0025,0.0031,0.0032,0.0053,0.0034,0.0035,0.0036,0.0036,0.0089,0.009,0,0,0,0,0,0,-0.0009,-0.0004,0.0018,0.0019,-0.0001,0.001,0.0011,0.0017,0.0025,0.0025,0.0017,0.0015,0.003,0.0031,0.0033,0.0072,0.0035,0.0036,0.0037,0.0088,0.0089,0.009,0,0,0,0,0,0,-0.0009,-0.0007,0.0017,0.0006,0.0009,0.0011,0.0018,0.0018,0.0022,0.0025,0.0025,0.0019,0.0029,0.0031,0.0045,0.0071,0.0037,0.0038,0.0088,0.0089,0.009,0.0141,0,0,0,0,0,0,-0.001,-0.0007,-0.0003,0.0006,0.001,0.0039,0.0019,0.0019,0.0023,0.0022,0.0028,0.0028,0.0029,0.0044,0.0047,0.0072,0.0039,0.0087,0.0088,0.0089,0.0138,0.0144,0.0148,0,0,0,0,0,-0.0011,0.0005,-0.0003,-0.0001,0.0015,0.0039,0.0042,0.004,0.0024,0.0038,0.0033,0.0028,0.0054,0.0045,0.0048,0.0075,0.0086,0.0088,0.0089,0.0136,0.0143,0.0148,0,0,0,0,0,0,-0.0006,0.0006,-0.0003,0.0015,0.0027,0.0038,0.0049,0.0042,0.005,0.0044,0.0039,0.004,0.0061,0.0059,0.0049,0.0093,0.0069,0.0072,0.0104,0.011,0.0115,0.0137,0.004,0,0,0,0,0,-0.0005,0.001,0.0019,0.0033,0.004,0.0041,0.0048,0.0048,0.0055,0.0057,0.006,0.0062,0.0072,0.0082,0.009,0.0117,0.0105,0.0135,0.014,0.0144,0.0163,0.0167,0.0175,0.0096,0.0095,0.0095,0,0,-0.0,0.0008,0.0015,0.0035,0.0042,0.0069,0.0045,0.0062,0.0082,0.0058,0.0085,0.008,0.0081,0.011,0.012,0.0111,0.0154,0.0146,0.015,0.0167,0.017,0.0177,0.0184,0.0097,0.0096,0.0096,0,0,0.003,0.0025,0.0052,0.0068,0.0083,0.0088,0.0093,0.0106,0.0108,0.013,0.0115,0.013,0.0142,0.0158,0.0164,0.0202,0.0176,0.0195,0.0247,0.0251,0.0257,0.0263,0.0234,0.0237,0.0203,0.0203,0.0203,0,0.0032,0.0068,0.0064,0.0098,0.0117,0.0098,0.0136,0.014,0.0155,0.017,0.0145,0.0184,0.0173,0.0225,0.0227,0.0217,0.0197,0.0225,0.0258,0.0264,0.0269,0.0237,0.024,0.0206,0.0206,0.0205,0.0205,0,0.0088,0.0115,0.0134,0.0169,0.0189,0.0218,0.0224,0.0238,0.0229,0.0238,0.0277,0.027,0.03,0.029,0.0265,0.0307,0.027,0.0259,0.0245,0.028,0.0244,0.0246,0.021,0.0209,0.0208,0.0207,0,0,0.0101,0.0161,0.0168,0.0204,0.023,0.0259,0.0286,0.0322,0.0364,0.0357,0.0422,0.0411,0.0408,0.0414,0.0396,0.039,0.0384,0.0337,0.0335,0.031,0.0363,0.0301,0.0297,0.0372,0.0373,0.0374,0.0313,0,0.0146,0.0225,0.0241,0.0317,0.0359,0.036,0.0402,0.0428,0.0442,0.0499,0.0486,0.0539,0.0456,0.0487,0.0463,0.0417,0.0395,0.04,0.033,0.0328,0.0273,0.03,0.0311,0.0255,0.0315,0.0315,0.0315,0,0.0199,0.0247,0.0327,0.041,0.043,0.0469,0.0543,0.0582,0.0634,0.0655,0.0687,0.0682,0.0687,0.0618,0.0541,0.0543,0.0455,0.0401,0.0398,0.0332,0.0272,0.0234,0.0256,0.0318,0.0318,0.0318,0.0317,0,0.0223,0.0312,0.0378,0.0404,0.0487,0.0526,0.0569,0.0628,0.0708,0.0769,0.0842,0.0821,0.0849,0.0742,0.0594,0.0575,0.0497,0.0464,0.0326,0.0319,0.0313,0.0304,0.0415,0.0415,0.0415,0.0415,0.0415,0,0.0267,0.0323,0.0399,0.0437,0.0545,0.0578,0.0701,0.074,0.0852,0.0978,0.0934,0.1023,0.0881,0.0813,0.0651,0.0484,0.0534,0.0344,0.0312,0.0326,0.0319,0.0368,0.0363,0.0413,0.0413,0.0414,0.0414,0,0.0283,0.0327,0.0423,0.052,0.0561,0.0639,0.0803,0.092,0.098,0.1148,0.1186,0.1189,0.1084,0.0907,0.0741,0.0577,0.0419,0.0343,0.0346,0.0315,0.022,0.0219,0.0202,0.02,0.0198,0.0196,0.0195,0,0.03,0.0343,0.0482,0.058,0.063,0.0757,0.0882,0.098,0.1116,0.1252,0.1354,0.1305,0.1276,0.0979,0.0699,0.0415,0.0386,0.0235,0.0208,0.0235,0.0205,0.0207,0.0208,0.0206,0.0205,0.0204,0.0203,0,0.034,0.0385,0.0483,0.0677,0.082,0.0974,0.1136,0.1251,0.1387,0.1492,0.1591,0.1567,0.1303,0.101,0.0617,0.0428,0.0278,0.0204,0.0266,0.0253,0.0233,0.0205,0.0208,0.0195,0.0195,0.0196,0.0197,0.0197,0.0389,0.0481,0.0635,0.0816,0.0979,0.1164,0.1281,0.1446,0.1611,0.1747,0.1726,0.1667,0.1373,0.0852,0.0522,0.0188,0.0222,0.0096,0.0102,0.0109,0.0114,0.0092,0.0026,0.0026,0.0026,0.0026,0.0026,0,0.0512,0.0617,0.0783,0.0996,0.116,0.1227,0.1455,0.1558,0.1707,0.1808,0.1837,0.1528,0.1202,0.0854,0.0354,0.0058,0.0055,-0.0044,0.0021,0.0032,0.0041,0.0045,-0.0063,-0.0064,-0.0065,-0.0066,0,0,0.0598,0.0783,0.0863,0.1119,0.1243,0.1438,0.1544,0.1677,0.1771,0.1818,0.1777,0.1716,0.1299,0.0916,0.0516,0.0223,0.0196,0.0164,0.0268,0.0403,0.0415,0.0153,0.0176,0,0,0,0,0]}],[{"header":{"parameterUnit":"m.s-1","parameterCategory":2,"la1":30.2991,"la2":30.254,"lo1":-89.0895,"lo2":-89.0444,"dy":0.0017,"dx":0.0017,"nx":28,"ny":28,"refTime":"2025-03-19T09:00:00:Z","depth":"4","parameterNumber":2,"parameterNumberName":"U-component_of_CURRENTS"},"data":[0,0,0,0,0,0,0,0,0,0,0,0,0,0,0,0,0,0,0,0,0,0,0,0,0,0,0,0,0,0,0,0,0,0,0,0,0,0,0,0,0,0,0,0,0,0,0,0,0,0,0,0,0,0,0,0,0,0,0.1303,0.1303,0,0.132,0.132,0.132,0.1358,0.1358,0.1359,0.136,0.1451,0.1453,0.1454,0,0,0,0,0,0,0,0,0,0,0,0,0,0.1332,0.1331,0.1303,0.1303,0.1303,0.132,0.132,0.132,0.1358,0.1358,0.1359,0.136,0.1451,0.1453,0.1455,0,0,0,0,0,0,0,0,0,0,0,0,0,0.1331,0.133,0.1302,0.1324,0.1326,0.132,0.132,0.132,0.1357,0.1358,0.136,0.1361,0.145,0.1452,0.1455,0.1447,0,0,0.1463,0.1464,0,0,0,0,0,0,0,0,0.1331,0.1329,0.132,0.1322,0.1325,0.1338,0.1364,0.1367,0.1357,0.1345,0.136,0.1361,0.142,0.1425,0.1424,0.1451,0.1455,0.1463,0.1464,0.1465,0.1466,0,0,0,0,0,0,0,0.133,0.1329,0.1309,0.1321,0.1323,0.1343,0.1344,0.1364,0.1377,0.1346,0.1349,0.1351,0.1421,0.1421,0.1426,0.1457,0.1463,0.1465,0.1467,0.1468,0.1591,0.1593,0,0,0,0,0,0,0.1326,0.1329,0.1309,0.131,0.1331,0.1341,0.1342,0.1332,0.1375,0.1382,0.135,0.1353,0.1416,0.1423,0.143,0.1524,0.1465,0.1468,0.1469,0.1589,0.1592,0.1593,0,0,0,0,0,0,0.1326,0.1323,0.1308,0.1321,0.132,0.1339,0.1328,0.1332,0.136,0.1377,0.1386,0.1377,0.1417,0.1426,0.1483,0.1524,0.1469,0.1471,0.1587,0.159,0.1593,0.1648,0,0,0,0,0,0,0.1327,0.1323,0.1324,0.132,0.1319,0.1328,0.1327,0.1332,0.1358,0.1362,0.1402,0.141,0.1419,0.1479,0.1485,0.1527,0.1473,0.1585,0.1589,0.1592,0.1644,0.1652,0.1659,0,0,0,0,0,0.1327,0.132,0.1323,0.1322,0.1316,0.1329,0.1331,0.1348,0.1358,0.1376,0.141,0.141,0.1504,0.1482,0.1489,0.1532,0.1584,0.1588,0.1591,0.164,0.165,0.1659,0,0,0,0,0,0,0.1342,0.1323,0.1326,0.1317,0.1334,0.1336,0.1358,0.1361,0.1398,0.1419,0.1429,0.144,0.1502,0.151,0.1485,0.1578,0.1545,0.1551,0.158,0.159,0.1597,0.1589,0.1475,0,0,0,0,0,0.1341,0.133,0.1329,0.133,0.1343,0.1355,0.1366,0.1379,0.1404,0.1422,0.1458,0.1494,0.1517,0.1549,0.1573,0.1625,0.1638,0.1659,0.1667,0.1673,0.1672,0.1765,0.1781,0.1606,0.1606,0.1606,0,0,0.1348,0.1338,0.1334,0.1333,0.1353,0.1366,0.1367,0.14,0.142,0.1427,0.1496,0.1522,0.1534,0.1593,0.1623,0.1612,0.1722,0.1678,0.1683,0.1679,0.177,0.1788,0.1803,0.1609,0.1609,0.1608,0,0,0.135,0.1356,0.1347,0.136,0.1387,0.1399,0.1414,0.1446,0.1479,0.153,0.1542,0.1598,0.1645,0.167,0.1679,0.1744,0.1753,0.1758,0.1802,0.1892,0.1908,0.1921,0.1926,0.194,0.1772,0.1772,0.1772,0,0.1365,0.1344,0.1354,0.1356,0.1373,0.1416,0.1428,0.1462,0.1513,0.1545,0.1568,0.166,0.1677,0.1732,0.1754,0.1762,0.1791,0.1764,0.1903,0.1917,0.193,0.1932,0.1947,0.1775,0.1775,0.1774,0.1774,0,0.1335,0.135,0.1362,0.1371,0.1394,0.1424,0.1464,0.1519,0.1571,0.1598,0.1692,0.174,0.1807,0.1814,0.1798,0.1897,0.1876,0.1896,0.1879,0.1951,0.1948,0.1962,0.1779,0.1778,0.1777,0.1777,0,0,0.1312,0.1331,0.1347,0.1356,0.1408,0.1419,0.1486,0.154,0.1585,0.1677,0.1759,0.1808,0.1874,0.189,0.1916,0.1974,0.2071,0.1978,0.1982,0.1979,0.2226,0.2086,0.2086,0.2136,0.214,0.2143,0.2174,0,0.1303,0.129,0.132,0.1355,0.1358,0.1432,0.1487,0.1546,0.1619,0.1722,0.1808,0.189,0.1896,0.1954,0.203,0.2074,0.2118,0.2057,0.2159,0.216,0.2026,0.2102,0.2154,0.2184,0.2187,0.219,0.2191,0,0.1266,0.1262,0.1269,0.1335,0.1353,0.1398,0.1494,0.1564,0.17,0.1759,0.1886,0.1957,0.2085,0.2085,0.2225,0.2198,0.2216,0.2226,0.2229,0.2089,0.2048,0.2107,0.2217,0.2215,0.2213,0.2211,0.221,0,0.1199,0.1246,0.1248,0.1261,0.1331,0.1387,0.1476,0.1584,0.1682,0.1824,0.1914,0.205,0.2195,0.2253,0.2314,0.2291,0.2439,0.2418,0.2286,0.2273,0.2364,0.2349,0.2495,0.2495,0.2495,0.2495,0.2495,0,0.1147,0.1159,0.1227,0.1222,0.1273,0.1369,0.1468,0.1556,0.1754,0.1853,0.1984,0.2088,0.2259,0.2368,0.2361,0.2381,0.2503,0.2293,0.2293,0.2378,0.2366,0.2371,0.2356,0.2496,0.2496,0.2496,0.2496,0,0.1031,0.1089,0.11,0.1191,0.1235,0.1289,0.1499,0.1573,0.1763,0.1922,0.1992,0.2209,0.2315,0.2412,0.2508,0.2457,0.2449,0.2409,0.2461,0.2462,0.2191,0.2179,0.2253,0.2249,0.2245,0.2242,0.224,0,0.0927,0.0919,0.104,0.1108,0.1163,0.1271,0.135,0.1552,0.1667,0.194,0.2031,0.2221,0.2305,0.2358,0.244,0.2424,0.2391,0.2359,0.2284,0.2185,0.2177,0.217,0.2163,0.2234,0.2233,0.2232,0.2231,0,0.0733,0.0823,0.0861,0.1029,0.1132,0.1173,0.1345,0.1438,0.1668,0.183,0.1995,0.206,0.2196,0.2268,0.2303,0.2272,0.2368,0.232,0.2326,0.2256,0.2162,0.2157,0.2154,0.2219,0.2221,0.2222,0.2222,0,0.0607,0.0636,0.0802,0.0956,0.1073,0.1135,0.1186,0.1349,0.1494,0.1824,0.1842,0.2009,0.217,0.2188,0.2196,0.2192,0.2138,0.2046,0.2065,0.2079,0.201,0.1865,0.1839,0,0,0,0,0,0.0479,0.0605,0.0735,0.0912,0.1032,0.1101,0.1231,0.13,0.1507,0.1575,0.1735,0.181,0.1883,0.1986,0.1944,0.2095,0.2134,0.2033,0.2033,0.215,0.2164,0.2099,0,0,0,0,0,0,0.0429,0.0566,0.0716,0.0884,0.0985,0.106,0.112,0.1212,0.1302,0.1512,0.158,0.1692,0.181,0.1893,0.1912,0.1932,0.189,0.2134,0.2129,0.2141,0.2154,0.2166,0.2105,0,0,0,0,0]},{"header":{"parameterUnit":"m.s-1","parameterCategory":2,"la1":30.2991,"la2":30.254,"lo1":-89.0895,"lo2":-89.0444,"dy":0.0017,"dx":0.0017,"nx":28,"ny":28,"refTime":"2025-03-19T09:00:00:Z","depth":"4","parameterNumber":3,"parameterNumberName":"V-component_of_CURRENTS"},"data":[0,0,0,0,0,0,0,0,0,0,0,0,0,0,0,0,0,0,0,0,0,0,0,0,0,0,0,0,0,0,0,0,0,0,0,0,0,0,0,0,0,0,0,0,0,0,0,0,0,0,0,0,0,0,0,0,0,0,0.0045,0.0045,0,0.0063,0.0063,0.0063,0.0057,0.0056,0.0056,0.0055,0.0076,0.0077,0.0078,0,0,0,0,0,0,0,0,0,0,0,0,0,0.001,0.0011,0.0045,0.0046,0.0046,0.0063,0.0063,0.0063,0.0057,0.0056,0.0056,0.0055,0.0075,0.0076,0.0078,0,0,0,0,0,0,0,0,0,0,0,0,0,0.0027,0.0011,0.0045,0.0044,0.0044,0.0063,0.0063,0.0063,0.0057,0.0056,0.0055,0.0055,0.0075,0.0076,0.0078,0.0101,0,0,0.0082,0.0083,0,0,0,0,0,0,0,0,0.0026,0.0029,0.0044,0.0044,0.0044,0.0056,0.0058,0.0076,0.0057,0.0053,0.0055,0.0054,0.0069,0.0071,0.0077,0.0102,0.0103,0.0082,0.0083,0.0084,0.0084,0,0,0,0,0,0,0,0.0025,0.0028,0.0053,0.0044,0.0044,0.0043,0.0045,0.0061,0.0066,0.0053,0.0052,0.0053,0.0069,0.0076,0.0078,0.0103,0.0082,0.0084,0.0085,0.0085,0.0127,0.0127,0,0,0,0,0,0,0.0022,0.0027,0.0052,0.0053,0.0032,0.0045,0.0047,0.0054,0.0065,0.0066,0.0054,0.0053,0.0074,0.0076,0.0078,0.0104,0.0084,0.0085,0.0086,0.0127,0.0127,0.0127,0,0,0,0,0,0,0.0021,0.0025,0.0052,0.0039,0.0043,0.0046,0.0054,0.0054,0.0058,0.0066,0.0067,0.0056,0.0073,0.0076,0.009,0.0104,0.0086,0.0087,0.0127,0.0127,0.0127,0.0157,0,0,0,0,0,0,0.0021,0.0024,0.0029,0.0039,0.0043,0.0068,0.0054,0.0055,0.0059,0.0058,0.0068,0.007,0.0073,0.0088,0.0091,0.0106,0.0088,0.0126,0.0127,0.0127,0.0155,0.0158,0.016,0,0,0,0,0,0.0019,0.0035,0.003,0.0033,0.005,0.0068,0.0071,0.007,0.006,0.0069,0.0069,0.0069,0.0093,0.009,0.0094,0.0109,0.0126,0.0127,0.0127,0.0154,0.0157,0.016,0,0,0,0,0,0,0.0021,0.0035,0.003,0.0048,0.0057,0.0067,0.0076,0.0072,0.008,0.0077,0.0077,0.008,0.0094,0.0097,0.0093,0.012,0.0108,0.0109,0.0127,0.013,0.0132,0.014,0.009,0,0,0,0,0,0.0024,0.0039,0.0047,0.0061,0.0066,0.0069,0.0075,0.0075,0.0082,0.0085,0.009,0.0093,0.0101,0.0111,0.0117,0.014,0.0119,0.0149,0.0152,0.0154,0.0161,0.0136,0.0137,0.0129,0.0129,0.0129,0,0,0.0028,0.0037,0.0046,0.0062,0.0069,0.0091,0.0072,0.0086,0.0103,0.0087,0.011,0.0103,0.0107,0.0126,0.0134,0.0131,0.0142,0.0155,0.0157,0.0163,0.0136,0.0137,0.0138,0.0129,0.0129,0.0129,0,0,0.0054,0.0053,0.0078,0.009,0.0102,0.0105,0.0108,0.0118,0.012,0.0138,0.0127,0.0126,0.0145,0.0149,0.0154,0.0175,0.0151,0.0175,0.0202,0.0177,0.0177,0.0177,0.0139,0.0136,0.0181,0.0181,0.0181,0,0.0056,0.0093,0.0087,0.0115,0.0134,0.0113,0.0149,0.0149,0.016,0.0163,0.0149,0.016,0.0158,0.0181,0.0184,0.0182,0.0156,0.0193,0.018,0.018,0.0179,0.014,0.0136,0.0183,0.0183,0.0183,0.0182,0,0.0104,0.0134,0.0151,0.0181,0.0196,0.0223,0.0223,0.0229,0.022,0.0212,0.0221,0.0212,0.0221,0.0214,0.0207,0.0211,0.0188,0.0181,0.0173,0.0182,0.014,0.0135,0.0185,0.0184,0.0184,0.0184,0,0,0.0113,0.0175,0.0181,0.022,0.0238,0.0262,0.028,0.0296,0.0307,0.0291,0.0309,0.0301,0.0278,0.0281,0.0268,0.0244,0.0209,0.0214,0.0212,0.0177,0.0139,0.0132,0.0125,0.0196,0.0196,0.0196,0.0106,0,0.0157,0.0238,0.0248,0.0322,0.0369,0.036,0.0387,0.0388,0.037,0.0374,0.0341,0.0348,0.031,0.0317,0.0285,0.0235,0.02,0.0234,0.0136,0.0133,0.0126,0.0121,0.0195,0.0102,0.0101,0.01,0.01,0,0.0206,0.026,0.0346,0.0421,0.0438,0.0475,0.0509,0.0527,0.0503,0.0484,0.0461,0.0424,0.0399,0.0361,0.027,0.0292,0.0219,0.0165,0.0161,0.0144,0.0117,0.0094,0.009,0.0091,0.0092,0.0092,0.0093,0,0.0244,0.033,0.0408,0.0434,0.0502,0.0542,0.0574,0.0568,0.0591,0.0557,0.0556,0.0497,0.0494,0.039,0.0274,0.0271,0.0155,0.0141,0.006,0.0057,0.0078,0.0079,0.0066,0.0066,0.0066,0.0066,0.0066,0,0.0301,0.0365,0.0443,0.049,0.0588,0.0609,0.0676,0.0685,0.0695,0.0711,0.063,0.0628,0.05,0.0414,0.0289,0.016,0.0166,0.0063,0.0038,0.009,0.0094,0.0073,0.0075,0.0063,0.0064,0.0064,0.0065,0,0.0347,0.0389,0.0485,0.0576,0.0617,0.0687,0.0774,0.0805,0.0803,0.0824,0.0822,0.0743,0.0622,0.0472,0.0306,0.0205,0.0064,0.0013,0.0071,0.0051,-0.0025,-0.002,-0.0081,-0.0082,-0.0083,-0.0084,-0.0084,0,0.0392,0.0446,0.0555,0.061,0.0665,0.0762,0.0823,0.0863,0.0889,0.0883,0.0899,0.0808,0.0721,0.0488,0.0319,0.0078,0.0044,-0.0036,-0.0026,-0.002,-0.0038,-0.0032,-0.0027,-0.0086,-0.0086,-0.0086,-0.0086,0,0.0468,0.0491,0.0556,0.0675,0.0759,0.0842,0.0935,0.0976,0.0993,0.0995,0.0956,0.0827,0.0694,0.0498,0.0315,0.0138,0.0012,-0.0045,-0.0045,-0.0036,-0.0026,-0.0042,-0.0035,-0.0089,-0.0089,-0.0088,-0.0088,0,0.0513,0.0548,0.0616,0.0725,0.0818,0.0894,0.0947,0.0989,0.1029,0.1027,0.1009,0.0852,0.0772,0.0529,0.0352,0.0185,0.0142,0.0081,0.0075,0.0075,0.0146,0.0183,0.0164,0,0,0,0,0,0.0554,0.0571,0.0664,0.0753,0.0845,0.0904,0.0999,0.1029,0.1061,0.1045,0.1033,0.0896,0.0651,0.0551,0.0385,0.0326,0.0105,0.0123,0.0029,-0.0104,-0.0101,-0.0046,0,0,0,0,0,0,0.0552,0.0622,0.0652,0.0762,0.0825,0.092,0.0983,0.1013,0.1008,0.1015,0.0897,0.0837,0.0608,0.0739,0.0373,0.0323,0.0237,0.0013,0.0009,-0.0106,-0.0103,-0.0101,-0.0043,0,0,0,0,0]}]]